Location: D�nning
(49.2479°N, 12.8491°E)
Time: 02:39:07
(UTC+00:00)

Cosmos 1743 - Pass Details

Date: 18 September 2020
Orbit: 510 x 527 km, 82.6° (Epoch: 24 October)

Event Time Altitude Azimuth Distance (km) Brightness Sun altitude
Rises 17:41:20 0° 195° (SSW) 2,636 6.4 -5.2°
Reaches altitude 10° 17:43:28 10° 198° (SSW) 1,750 5.5 -5.5°
Maximum altitude 17:47:17 66° 281° (WNW) 573 3.2 -6.2°
Drops below altitude 10° 17:51:07 10° 4° (N) 1,755 5.5 -6.8°
Sets 17:53:16 0° 8° (N) 2,645 6.3 -7.1°
